Regional Weather Roundup
Issued by NWS Charleston, SC

Current Version | Previous Version | Graphics & Text | Print | Product List | Glossary On
Versions: 1 2 3 4 5 6 7 8 9 10 11 12 13 14 15 16 17 18 19 20 21 22 23 24 25 26 27 28 29 30 31 32 33 34 35 36 37 38 39 40 41 42 43 44 45 46 47 48 49 50
000 ASUS42 KCHS 241945 RWRCHS REGIONAL WEATHER ROUNDUP NATIONAL WEATHER SERVICE CHARLESTON SC 300 PM EDT SUN SEP 24 2017 NOTE: "FAIR" INDICATES FEW OR NO CLOUDS BELOW 12,000 FEET WITH NO SIGNIFICANT WEATHER AND/OR OBSTRUCTIONS TO VISIBILITY. NOT ALL STATIONS ARE QUALITY CONTROLLED. USE DATA WITH CAUTION... ESPECIALLY DEWPOINT OBSERVATIONS. SCZ027-030-031-034>040-042>050-242000- ...SOUTHEAST SOUTH CAROLINA... CITY SKY/WX TMP DP RH WIND PRES REMARKS N CHARLESTON CLOUDY 82 68 62 NE8 29.96F WATERFRONT PRK N/A 81 70 69 E8 29.81F JOHNS ISLAND FAIR 82 70 65 E13 29.95F PINOPOLIS N/A 81 70 69 NE10 29.91F MONCKS CORNER FAIR 81 64 57 NE7 29.96F SUMMERVILLE FAIR 81 68 65 N6 29.97F BEAUFORT MCAS CLOUDY 86 69 56 NE13 29.96F HX 90 BEAUFORT ARPT FAIR 82 68 61 NE12 29.96S HILTON HEAD IS MOSUNNY 82 72 69 E8 29.96F WALTERBORO MOCLDY 82 68 61 NE9 29.98F ALLENDALE NOT AVBL ...SOUTHERN MIDLANDS AND PEE DEE... CITY SKY/WX TMP DP RH WIND PRES REMARKS GEORGETOWN FAIR 82 72 69 E9 29.97F KINGSTREE MOCLDY 82 64 54 N7G16 29.97F ORANGEBURG PTSUNNY 84 65 52 NE13G20 30.00F BARNWELL MOCLDY 88 68 51 NE12G20 29.99S HX 91 AIKEN FAIR 84 64 51 NE9 30.04F MANNING FAIR 84 55 37 MISG 29.97F COLUMBIA CLOUDY 87 65 47 NE9 30.00F SUMTER PTSUNNY 85 65 51 NE13 29.98F FLORENCE CLOUDY 85 67 54 NE14 29.99F MYRTLE BEACH PTSUNNY 84 68 58 N16 29.97F N MYRTLE BEACH CLOUDY 85 67 54 NE10 29.95F $$ GAZ063-065-086>088-099>101-113>116-118-119-134>141-150-242000- ...SOUTHEAST GEORGIA... CITY SKY/WX TMP DP RH WIND PRES REMARKS SAVANNAH ARPT CLOUDY 88 67 49 NE8 29.96F HX 91 HUNTER AAF MOSUNNY 84 68 59 N5 29.93F FORT STEWART MOSUNNY 87 67 51 NE8 29.93F HX 90 STATESBORO MOSUNNY 86 61 42 NE7 29.97F SYLVANIA PTCLDY 87 71 58 NE7 29.99F HX 93 CLAXTON MOCLDY 86 68 54 NE9 29.97S HX 90 ...CSRA...CENTRAL AND FAR SOUTHEAST GEORGIA... CITY SKY/WX TMP DP RH WIND PRES REMARKS THOMSON MOSUNNY 83 66 56 SE10 30.06F AUGUSTA-BUSH MOSUNNY 87 65 47 NE10 29.99F AUGUSTA-DANIEL MOSUNNY 88 64 44 NE10 30.01F SWAINSBORO MOCLDY 84 66 54 E7 30.00S VIDALIA PTSUNNY 88 68 51 E10 29.98S HX 91 EASTMAN FAIR 87 49 27 E6 30.00F HAZLEHURST FAIR 88 49 26 NE5 29.96F ALMA MOSUNNY 87 64 46 CALM 29.95F WAYCROSS MOSUNNY 85 62 45 E7 29.95S JESUP NOT AVBL BAXLEY FAIR 86 64 48 E6 29.96S BRUNSWICK PTSUNNY 82 70 65 NE17 29.95F SAINT SIMONS MOSUNNY 84 72 67 NE12 29.95F $$ SCZ027-028-034-036>038-045-046-048>050-GAZ119-141-242000- ...LAKE AND SUPPLEMENTAL COASTAL OBSERVATIONS... STATION/POSITION TIME TEMP WIND PRES WAVE SWELL AIR SEA DIR/SP/G HT/PER HT/PER/DIR (UTC) (F) (DEG/KT/KT) (MB) (FT/S) (FT/S/D) WINYAH BAY 1845 80 60/ 14 1015.0S LAKE MURRAY 1920 83 50/ 3/ 7 1014.9F ACE BASIN NERRS 1845 83 10/ 3 1014.0F FORT PULASKI 1900 79 81 80/ 13/ 16 1014.9 SAPELO ISLAND 1900 82 CALM 1014.0 $$ ANZ835-935-AMZ111-154-330-350-352-354-370-450-454-472-242000- ...C-MAN AND BUOY OBSERVATIONS... STATION/POSITION TIME TEMP WIND PRES WAVE SWELL AIR SEA DIR/SP/G HT/PER HT/PER/DIR (UTC) (F) (DEG/KT/KT) (MB) (FT/S) (FT/S/D) BUOY 41004 1910 78 81 30/ 21/ 25 1012.8 BUOY 41008 1850 79 81 40/ 17/ 19 1013.5F 6/11 3/110/11 FOLLY BEACH CMAN 1900 80 60/ 18/ 21 1015.1F CAPERS NEARSHORE 1908 78 80 60/ 19/ 25 1013.7F FRIPP NEARSHORE 1908 80 50/ 12/ 16 1020.9F STATION/POSITION TIME TEMP WIND PRES WAVE SWELL AIR SEA DIR/SP/G HT/PER HT/PER/DIR (UTC) (F) (DEG/KT/KT) (MB) (FT/S) (FT/S/D) 5E ST. MARYS GA 1900 82 N/A 6/13 3/120/13 FRYING PAN BUOY 1910 79 82 40/ 23/ 27 1013.0 BUOY 41025 1850 75 80 20/ 17/ 21 1014.5F 10/14 10/160/14 CAPE LOOKOUT NC 1900 78 30/ 21/ 25 1014.5F BUOY 41002 1850 80 80 40/ 29/ 35 1006.3F 20/15 15/150/15 BUOY 41010 1910 20/ 14/ 17 1010.8 ST AUGUSTINE FL 1900 81 83 20/ 20/ 21 1013.4F $$

USA.gov is the U.S. government's official web portal to all federal, state and local government web resources and services.